Surface/Precipitation History
11/26/2014 17:09  to  11/27/2014 17:09
Change End Date:
Date/Time
(MST)
Sf
Temp Chem Water Layer Surface Precipitation
Sf Sub Frz Factor Pct Depth IcePct Cond Salin Type Intens Accum Rate
11/27/2014 16:30 Wet 36.1F 31F 32F 5 0% 0.00 in 0% 0 mhos 1 Yes - - -
11/27/2014 16:22 Wet 36.3F 31F 32F 5 0% 0.00 in 0% 0 mhos 1 Yes - - -
11/27/2014 16:17 Wet 36.5F 31F 32F 5 0% 0.00 in 0% 0 mhos 1 Yes - - -
11/27/2014 16:12 Wet 36.3F 31F 32F 5 0% 0.00 in 0% 0 mhos 1 Yes - - -
11/27/2014 16:02 Wet 36.7F 31F 32F 5 0% 0.00 in 0% 0 mhos 1 Yes - - -
11/27/2014 16:01 Wet 36.7F 31F 32F 5 0% 0.00 in 0% 0 mhos 1 Yes - - -
11/27/2014 15:52 Wet 36.9F 31F 32F 5 0% 0.10 in 0% 0 mhos 1 Yes - - -
11/27/2014 15:47 Wet 36.9F 31F 32F 5 0% 0.00 in 0% 0 mhos 1 Yes - - -
11/27/2014 15:42 Wet 37.2F 31F 32F 5 0% 0.00 in 0% 0 mhos 1 Yes - - -
11/27/2014 15:32 Wet 36.9F 31F 32F 5 0% 0.00 in 0% 0 mhos 1 Yes - - -
11/27/2014 15:31 Wet 36.9F 31F 32F 5 0% 0.00 in 0% 0 mhos 1 Yes - - -
11/27/2014 15:22 Wet 37.4F 31F 32F 5 0% 0.00 in 0% 0 mhos 1 Yes - - -
11/27/2014 15:16 Wet 37.4F 31F 32F 5 0% 0.00 in 0% 0 mhos 1 Yes - - -
11/27/2014 15:12 Wet 37.6F 31F 32F 5 0% 0.00 in 0% 0 mhos 1 Yes - - -
11/27/2014 15:02 Wet 37.4F 31F 32F 5 0% 0.00 in 0% 0 mhos 1 Yes - - -
Date/Time
(MST)
Sf
Temp Chem Water Layer Surface Precipitation
Sf Sub Frz Factor Pct Depth IcePct Cond Salin Type Intens Accum Rate
11/27/2014 15:01 Wet 37.4F 31F 32F 5 0% 0.00 in 0% 0 mhos 1 Yes - - -
11/27/2014 14:52 Wet 37.6F 31F 32F 5 0% 0.00 in 0% 0 mhos 1 Yes - - -
11/27/2014 14:47 Wet 37.6F 31F 32F 5 0% 0.00 in 0% 0 mhos 1 Yes - - -
11/27/2014 14:42 Wet 37.9F 31F 32F 5 0% 0.00 in 0% 0 mhos 1 None None - -
11/27/2014 14:32 Wet 37.8F 31F 32F 70 0% 0.00 in 0% 0 mhos 1 Yes - - -
11/27/2014 14:30 Wet 37.8F 31F 32F 65 0% 0.00 in 0% 0 mhos 1 Yes - - -
11/27/2014 14:22 Wet 37.9F 31F 32F 5 0% 0.10 in 0% 0 mhos 1 Yes - - -
11/27/2014 14:17 Wet 38.1F 31F 32F 5 0% 0.00 in 0% 0 mhos 2 Yes - - -
11/27/2014 14:12 Wet 38.3F 31F 32F 5 0% 0.00 in 0% 0 mhos 2 Yes - - -
11/27/2014 14:01 Wet 38.5F 31F 32F 5 0% 0.10 in 0% 0 mhos 2 Yes - - -
11/27/2014 14:01 Wet 38.3F 31F 32F 5 0% 0.10 in 0% 0 mhos 2 Yes - - -
11/27/2014 13:51 Wet 37.8F 31F 32F 5 0% 0.00 in 0% 0 mhos 2 Yes - - -
11/27/2014 13:47 Wet 38.1F 31F 32F 5 0% 0.10 in 0% 0 mhos 2 Yes - - -
11/27/2014 13:41 Wet 37.9F 31F 32F 5 0% 0.00 in 0% 0 mhos 2 Yes - - -
11/27/2014 13:31 Wet 38.5F 31F 32F 5 0% 0.10 in 0% 0 mhos 2 Yes - - -
Date/Time
(MST)
Sf
Temp Chem Water Layer Surface Precipitation
Sf Sub Frz Factor Pct Depth IcePct Cond Salin Type Intens Accum Rate
11/27/2014 13:31 Wet 38.5F 31F 32F 5 0% 0.10 in 0% 0 mhos 2 Yes - - -
11/27/2014 13:21 Wet 38.7F 31F 32F 15 0% 0.20 in 0% 0 mhos 2 Yes - - -
11/27/2014 13:17 Wet 38.8F 31F 32F 5 0% 0.00 in 0% 0 mhos 2 Yes - - -
11/27/2014 13:11 Wet 38.7F 31F 32F 70 0% 0.00 in 0% 0 mhos 2 Yes - - -
11/27/2014 13:01 Wet 38.7F 31F 32F 10 0% 0.10 in 0% 0 mhos 2 Yes - - -
11/27/2014 13:01 Wet 38.7F 31F 32F 25 0% 0.20 in 0% 0 mhos 2 Yes - - -
11/27/2014 12:51 Wet 38.7F 31F 32F 5 0% 0.10 in 0% 0 mhos 2 Yes - - -
11/27/2014 12:41 Wet 39.0F 31F 32F 60 0% 0.40 in 0% 0 mhos 2 Yes - - -
11/27/2014 12:31 Wet 38.8F 31F 32F 5 0% 0.10 in 0% 0 mhos 2 Yes - - -
11/27/2014 12:21 Wet 39.0F 31F 32F 10 0% 0.10 in 0% 0 mhos 2 Yes - - -
11/27/2014 12:11 Wet 39.6F 31F 32F 95 0% 0.00 in 0% 0 mhos 3 Yes - - -
11/27/2014 12:01 Wet 39.9F 31F 32F 15 0% 0.10 in 0% 0 mhos 3 Yes - - -
11/27/2014 11:51 Wet 39.4F 31F 32F 40 0% 0.10 in 0% 0 mhos 3 Yes - - -
11/27/2014 11:41 Wet 39.9F 31F 32F 5 0% 0.00 in 0% 0 mhos 3 Yes - - -
11/27/2014 11:31 Wet 39.9F 31F 32F 30 0% 0.10 in 0% 0 mhos 4 Yes - - -
Date/Time
(MST)
Sf
Temp Chem Water Layer Surface Precipitation
Sf Sub Frz Factor Pct Depth IcePct Cond Salin Type Intens Accum Rate
11/27/2014 11:21 Wet 39.9F 31F 32F 65 0% 0.20 in 0% 0 mhos 4 Yes - - -
11/27/2014 11:11 Wet 39.9F 31F 32F 75 0% 0.20 in 0% 0 mhos 4 Yes - - -
11/27/2014 11:01 Wet 38.8F 31F 32F 95 0% 0.30 in 0% 0 mhos 4 Yes - - -
11/27/2014 10:51 Wet 37.9F 31F 32F 95 0% 0.40 in 0% 0 mhos 5 Yes - - -
11/27/2014 10:47 Wet 38.1F 31F 32F 85 0% 0.20 in 0% 0 mhos 5 Yes - - -
11/27/2014 10:40 Wet 37.2F 31F 32F 65 0% 0.10 in 0% 0 mhos 6 Yes - - -
11/27/2014 10:31 Wet 36.5F 31F 32F 95 0% 0.30 in 0% 0 mhos 6 Yes - - -
11/27/2014 10:30 Wet 36.5F 31F 32F 90 0% 0.20 in 0% 0 mhos 6 Yes - - -
11/27/2014 10:20 Wet 36.3F 31F 32F 95 0% 0.60 in 0% 0 mhos 7 Yes - - -
11/27/2014 10:16 Wet 36.1F 31F 32F 95 0% 0.00 in 0% 0 mhos 7 Yes - - -
11/27/2014 10:10 Wet 36.0F 31F 32F 95 0% 6.70 in 0% 0 mhos 7 Yes - - -
11/27/2014 10:01 Wet 35.6F 31F 32F 95 0% 1.30 in 0% 0 mhos 7 Yes - - -
11/27/2014 10:00 Wet 35.6F 31F 32F 95 0% 1.20 in 0% 0 mhos 7 Yes - - -
11/27/2014 09:50 Wet 35.2F 31F 32F 95 0% 0.00 in 0% 0 mhos 8 Yes - - -
11/27/2014 09:47 Wet 35.2F 31F 32F 95 0% 0.00 in 0% 0 mhos 8 Yes - - -
Date/Time
(MST)
Sf
Temp Chem Water Layer Surface Precipitation
Sf Sub Frz Factor Pct Depth IcePct Cond Salin Type Intens Accum Rate
11/27/2014 09:40 Wet 34.9F 31F 32F 95 0% 0.00 in 0% 0 mhos 8 Yes - - -
11/27/2014 09:30 Wet 34.5F 31F 32F 95 0% 0.00 in 0% 0 mhos 8 Yes - - -
11/27/2014 09:20 Wet 33.8F 31F 32F 95 0% 0.00 in 0% 0 mhos 6 Yes - - -
11/27/2014 09:10 Wet 33.8F 31F 32F 10 0% 0.00 in 0% 0 mhos 5 Yes - - -
11/27/2014 09:00 Wet 33.4F 31F 32F 15 0% 0.00 in 0% 0 mhos 6 Yes - - -
11/27/2014 08:50 Wet 32.9F 31F 32F 70 0% 0.10 in 0% 0 mhos 6 Yes - - -
11/27/2014 08:47 Wet 32.7F 31F 32F 75 0% 0.10 in 0% 0 mhos 6 Yes - - -
11/27/2014 08:40 Wet 32.5F 31F 32F 50 0% 0.10 in 0% 0 mhos 7 Yes - - -
11/27/2014 08:30 Wet 32.5F 31F 32F 45 0% 0.00 in 0% 0 mhos 9 Yes - - -
11/27/2014 08:20 Wet 32.5F 31F 32F 65 0% 0.10 in 0% 0 mhos 10 Yes - - -
11/27/2014 08:10 Wet 32.7F 31F 32F 65 0% 0.10 in 0% 0 mhos 12 Yes - - -
11/27/2014 08:01 Wet 32.9F 31F 32F 95 0% 0.50 in 0% 0 mhos 14 Yes - - -
11/27/2014 08:00 Wet 32.9F 31F 32F 95 0% 0.80 in 0% 0 mhos 14 Yes - - -
11/27/2014 07:50 Wet 32.9F 31F 32F 95 0% 0.20 in 0% 0 mhos 16 Yes - - -
11/27/2014 07:47 Wet 33.1F 31F 32F 95 0% 0.20 in 0% 0 mhos 16 Yes - - -
Date/Time
(MST)
Sf
Temp Chem Water Layer Surface Precipitation
Sf Sub Frz Factor Pct Depth IcePct Cond Salin Type Intens Accum Rate
11/27/2014 07:39 Wet 32.9F 31F 32F 95 0% 0.10 in 0% 0 mhos 17 Yes - - -
11/27/2014 07:31 Wet 32.9F 31F 32F 95 0% 0.20 in 0% 0 mhos 19 Yes - - -
11/27/2014 07:29 Wet 32.9F 31F 32F 95 0% 0.20 in 0% 0 mhos 19 Yes - - -
11/27/2014 07:19 Wet 33.1F 31F 32F 95 0% 0.30 in 0% 0 mhos 20 Yes - - -
11/27/2014 07:17 Wet 33.1F 31F 32F 95 0% 0.40 in 0% 0 mhos 20 Yes - - -
11/27/2014 07:09 Wet 33.1F 31F 32F 95 0% 0.20 in 0% 0 mhos 20 Yes - - -
11/27/2014 07:00 Wet 32.9F 31F 32F 95 0% 0.30 in 0% 0 mhos 20 Yes - - -
11/27/2014 06:59 Wet 32.9F 31F 32F 95 0% 0.40 in 0% 0 mhos 20 Yes - - -
11/27/2014 06:49 Wet 32.9F 31F 32F 95 0% 0.00 in 0% 0 mhos 21 Yes - - -
11/27/2014 06:47 Wet 32.7F 31F 32F 95 0% 2.10 in 0% 0 mhos 20 Yes - - -
11/27/2014 06:39 Wet 32.7F 31F 32F 95 0% 6.40 in 0% 0 mhos 18 Yes - - -
11/27/2014 06:31 Wet 32.5F 31F 32F 95 0% 0.00 in 0% 0 mhos 18 Yes - - -
11/27/2014 06:29 Wet 32.5F 31F 32F 95 0% 0.00 in 0% 0 mhos 18 Yes - - -
11/27/2014 06:19 Wet 32.5F 31F 32F 95 0% 0.00 in 0% 0 mhos 14 Yes - - -
11/27/2014 06:09 Wet 32.5F 31F 32F 95 0% 0.00 in 0% 0 mhos 8 Yes - - -
Date/Time
(MST)
Sf
Temp Chem Water Layer Surface Precipitation
Sf Sub Frz Factor Pct Depth IcePct Cond Salin Type Intens Accum Rate
11/27/2014 06:01 Wet 32.7F 31F 32F 95 0% 0.00 in 0% 0 mhos 5 Yes - - -
11/27/2014 05:59 Wet 32.7F 31F 32F 95 0% 0.00 in 0% 0 mhos 4 Yes - - -
11/27/2014 05:49 Wet 32.7F 31F 32F 5 0% 0.10 in 0% 0 mhos 1 Yes - - -
11/27/2014 04:59 Wet 32.5F 31F 32F 45 0% 2.70 in 0% 0 mhos 1 Yes - - -
11/27/2014 04:49 Wet 32.5F 31F 32F 5 0% 0.10 in 0% 0 mhos 1 Yes - - -
11/27/2014 04:39 Wet 32.5F 31F 32F 95 0% 0.00 in 0% 0 mhos 2 Yes - - -
11/27/2014 04:29 Wet 32.5F 31F 32F 95 0% 0.00 in 0% 0 mhos 2 Yes - - -
11/27/2014 04:19 Wet 32.5F 31F 32F 5 0% 0.10 in 0% 0 mhos 2 Yes - - -
11/27/2014 04:09 Wet 32.4F 31F 32F 10 0% 0.10 in 0% 0 mhos 2 None None - -
11/27/2014 03:59 Wet 32.4F 31F 32F 10 0% 0.10 in 0% 0 mhos 2 Yes - - -
11/27/2014 03:49 Wet 32.2F 31F 32F 15 0% 0.20 in 0% 0 mhos 2 Yes - - -
11/27/2014 03:47 Wet 32.2F 31F 32F 20 0% 0.20 in 0% 0 mhos 2 None None - -
11/27/2014 03:39 Wet 32.2F 31F 32F 35 0% 0.30 in 0% 0 mhos 2 None None - -
11/27/2014 03:31 Wet 32.2F 31F 32F 35 0% 0.30 in 0% 0 mhos 2 None None - -
11/27/2014 03:29 Wet 32.2F 31F 32F 30 0% 0.20 in 0% 0 mhos 2 None None - -
Date/Time
(MST)
Sf
Temp Chem Water Layer Surface Precipitation
Sf Sub Frz Factor Pct Depth IcePct Cond Salin Type Intens Accum Rate
11/27/2014 03:19 Wet 32.4F 31F 32F 30 0% 0.20 in 0% 0 mhos 2 Yes - - -
11/27/2014 03:15 Wet 32.4F 31F 32F 45 0% 0.40 in 0% 0 mhos 2 Yes - - -
11/27/2014 03:09 Wet 32.4F 31F 32F 45 0% 0.50 in 0% 0 mhos 2 None None - -
11/27/2014 03:01 Wet 32.5F 31F 32F 45 0% 0.50 in 0% 0 mhos 2 Yes - - -
11/27/2014 02:58 Wet 32.5F 31F 32F 40 0% 0.30 in 0% 0 mhos 2 Yes - - -
11/27/2014 02:48 Wet 32.5F 31F 32F 30 0% 0.20 in 0% 0 mhos 2 Yes - - -
11/27/2014 02:46 Wet 32.5F 31F 32F 40 0% 0.30 in 0% 0 mhos 2 Yes - - -
11/27/2014 02:38 Wet 32.5F 31F 32F 25 0% 0.20 in 0% 0 mhos 2 Yes - - -
11/27/2014 02:30 Wet 32.5F 31F 32F 35 0% 0.20 in 0% 0 mhos 2 Yes - - -
11/27/2014 02:28 Wet 32.5F 31F 32F 35 0% 0.30 in 0% 0 mhos 2 Yes - - -
11/27/2014 02:18 Wet 32.4F 31F 32F 25 0% 0.20 in 0% 0 mhos 2 Yes - - -
11/27/2014 02:18 Wet 32.4F 31F 32F 25 0% 0.20 in 0% 0 mhos 2 Yes - - -
11/27/2014 02:08 Wet 32.4F 31F 32F 35 0% 0.20 in 0% 0 mhos 2 Yes - - -
11/27/2014 02:01 Wet 32.4F 31F 32F 35 0% 0.20 in 0% 0 mhos 2 Yes - - -
11/27/2014 01:58 Wet 32.4F 31F 32F 40 0% 0.20 in 0% 0 mhos 2 Yes - - -
Date/Time
(MST)
Sf
Temp Chem Water Layer Surface Precipitation
Sf Sub Frz Factor Pct Depth IcePct Cond Salin Type Intens Accum Rate
11/27/2014 01:48 Wet 32.4F 31F 32F 15 0% 0.10 in 0% 0 mhos 2 Yes - - -
11/27/2014 01:46 Wet 32.4F 31F 32F 25 0% 0.20 in 0% 0 mhos 2 Yes - - -
11/27/2014 01:38 Wet 32.4F 31F 32F 25 0% 0.20 in 0% 0 mhos 2 Yes - - -
11/27/2014 01:31 Wet 32.4F 31F 32F 25 0% 0.20 in 0% 0 mhos 2 Yes - - -
11/27/2014 01:28 Wet 32.4F 31F 32F 25 0% 0.20 in 0% 0 mhos 2 Yes - - -
11/27/2014 01:18 Wet 32.4F 31F 32F 40 0% 0.20 in 0% 0 mhos 2 Yes - - -
11/27/2014 01:17 Wet 32.4F 31F 32F 40 0% 0.20 in 0% 0 mhos 2 None None - -
11/27/2014 01:08 Wet 32.4F 31F 32F 30 0% 0.20 in 0% 0 mhos 2 None None - -
11/27/2014 01:01 Wet 32.2F 31F 32F 35 0% 0.20 in 0% 0 mhos 2 None None - -
11/27/2014 00:58 Wet 32.2F 31F 32F 45 0% 0.30 in 0% 0 mhos 2 None None - -
11/27/2014 00:48 Wet 32.2F 31F 32F 50 0% 0.30 in 0% 0 mhos 2 None None - -
11/27/2014 00:47 Wet 32.2F 31F 32F 50 0% 0.30 in 0% 0 mhos 2 None None - -
11/27/2014 00:38 Wet 32.2F 31F 32F 95 0% 0.00 in 0% 0 mhos 3 Yes - - -
11/27/2014 00:28 Wet 32.2F 31F 32F 95 0% 0.00 in 0% 0 mhos 3 Yes - - -
11/27/2014 00:18 Wet 32.2F 31F 32F 65 0% 0.40 in 0% 0 mhos 3 Yes - - -
Date/Time
(MST)
Sf
Temp Chem Water Layer Surface Precipitation
Sf Sub Frz Factor Pct Depth IcePct Cond Salin Type Intens Accum Rate
11/27/2014 00:08 Wet 32.2F 31F 32F 95 0% 0.00 in 0% 0 mhos 3 Yes - - -
11/26/2014 23:58 Wet 32.2F 31F 32F 95 0% 0.00 in 0% 0 mhos 4 Yes - - -
11/26/2014 23:48 Chemically Wet 32.0F 31F 32F 95 0% 4.40 in 0% 0 mhos 4 Yes - - -
11/26/2014 23:38 Chemically Wet 32.0F 31F 32F 65 0% 0.20 in 0% 0 mhos 4 Yes - - -
11/26/2014 23:31 Chemically Wet 32.0F 31F 32F 95 0% 0.00 in 0% 0 mhos 4 Yes - - -
11/26/2014 23:28 Chemically Wet 32.0F 31F 32F 95 0% 0.00 in 0% 0 mhos 4 Yes - - -
11/26/2014 23:18 Chemically Wet 32.0F 31F 32F 95 0% 0.00 in 0% 0 mhos 4 Yes - - -
11/26/2014 23:08 Chemically Wet 32.0F 31F 32F 95 0% 0.00 in 0% 0 mhos 4 Yes - - -
11/26/2014 23:01 Chemically Wet 32.0F 31F 32F 95 0% 0.00 in 0% 0 mhos 5 Yes - - -
11/26/2014 22:57 Ice Warning 31.8F 31F 32F 95 0% - 97% 0 mhos 5 Yes - - -
11/26/2014 22:47 Chemically Wet 32.0F 31F 32F 95 0% 0.00 in 0% 0 mhos 5 Yes - - -
11/26/2014 22:47 Chemically Wet 32.0F 31F 32F 95 0% 0.00 in 0% 0 mhos 5 Yes - - -
11/26/2014 22:37 Chemically Wet 32.0F 31F 32F 95 0% 0.00 in 0% 0 mhos 5 None None - -
11/26/2014 22:31 Chemically Wet 32.0F 31F 32F 95 0% 0.00 in 0% 0 mhos 5 Yes - - -
11/26/2014 22:27 Wet 32.2F 31F 32F 95 0% 0.00 in 0% 0 mhos 5 Yes - - -
Date/Time
(MST)
Sf
Temp Chem Water Layer Surface Precipitation
Sf Sub Frz Factor Pct Depth IcePct Cond Salin Type Intens Accum Rate
11/26/2014 22:17 Chemically Wet 32.0F 31F 32F 95 0% 0.00 in 0% 0 mhos 5 Yes - - -
11/26/2014 22:16 Chemically Wet 32.0F 31F 32F 95 0% 0.00 in 0% 0 mhos 5 Yes - - -
11/26/2014 22:07 Wet 32.2F 31F 32F 95 0% 0.00 in 0% 0 mhos 5 None None - -
11/26/2014 22:00 Chemically Wet 32.0F 31F 32F 95 0% 0.00 in 0% 0 mhos 5 Yes - - -
11/26/2014 21:57 Chemically Wet 32.0F 31F 32F 95 0% 0.00 in 0% 0 mhos 5 Yes - - -
11/26/2014 21:47 Wet 32.2F 31F 32F 95 0% 0.00 in 0% 0 mhos 5 None None - -
11/26/2014 21:46 Wet 32.2F 31F 32F 95 0% 0.00 in 0% 0 mhos 5 Yes - - -
11/26/2014 21:37 Wet 32.2F 31F 32F 95 0% 0.00 in 0% 0 mhos 5 Yes - - -
11/26/2014 21:30 Wet 32.2F 31F 32F 95 0% 0.00 in 0% 0 mhos 5 None None - -
11/26/2014 21:27 Chemically Wet 32.0F 31F 32F 95 0% 0.00 in 0% 0 mhos 5 None None - -
11/26/2014 21:17 Chemically Wet 32.0F 31F 32F 95 0% 0.00 in 0% 0 mhos 5 Yes - - -
11/26/2014 21:17 Chemically Wet 32.0F 31F 32F 95 0% 0.00 in 0% 0 mhos 5 Yes - - -
11/26/2014 21:07 Chemically Wet 32.0F 31F 32F 95 0% 0.00 in 0% 0 mhos 5 None None - -
11/26/2014 21:00 Chemically Wet 32.0F 31F 32F 95 0% 0.00 in 0% 0 mhos 5 None None - -
11/26/2014 20:57 Chemically Wet 32.0F 31F 32F 95 0% 0.00 in 0% 0 mhos 5 None None - -
Date/Time
(MST)
Sf
Temp Chem Water Layer Surface Precipitation
Sf Sub Frz Factor Pct Depth IcePct Cond Salin Type Intens Accum Rate
11/26/2014 20:47 Chemically Wet 32.0F 31F 32F 95 0% 0.00 in 0% 0 mhos 5 None None - -
11/26/2014 20:47 Chemically Wet 32.0F 31F 32F 95 0% 0.00 in 0% 0 mhos 5 None None - -
11/26/2014 20:37 Chemically Wet 32.0F 31F 32F 95 0% 0.00 in 0% 0 mhos 5 Yes - - -
11/26/2014 20:31 Chemically Wet 32.0F 31F 32F 95 0% 0.00 in 0% 0 mhos 5 Yes - - -
11/26/2014 20:27 Chemically Wet 32.0F 31F 32F 95 0% 0.00 in 0% 0 mhos 5 None None - -
11/26/2014 20:17 Chemically Wet 32.0F 31F 32F 95 0% 0.00 in 0% 0 mhos 5 None None - -
11/26/2014 20:16 Chemically Wet 32.0F 31F 32F 95 0% 0.00 in 0% 0 mhos 5 None None - -
11/26/2014 20:07 Chemically Wet 32.0F 31F 32F 95 0% 0.00 in 0% 0 mhos 5 None None - -
11/26/2014 20:01 Chemically Wet 32.0F 31F 32F 95 0% 0.00 in 0% 0 mhos 5 None None - -
11/26/2014 19:57 Chemically Wet 32.0F 31F 32F 95 0% 0.00 in 0% 0 mhos 5 None None - -
11/26/2014 19:47 Ice Warning 31.8F 31F 32F 95 0% - 97% 0 mhos 5 None None - -
11/26/2014 19:46 Ice Warning 31.8F 31F 32F 95 0% - 97% 0 mhos 5 None None - -
11/26/2014 19:36 Chemically Wet 32.0F 31F 32F 95 0% 0.00 in 0% 0 mhos 5 Yes - - -
11/26/2014 19:30 Chemically Wet 32.0F 31F 32F 95 0% 0.00 in 0% 0 mhos 4 None None - -
11/26/2014 19:26 Chemically Wet 32.0F 31F 32F 95 0% 0.00 in 0% 0 mhos 4 Yes - - -
Date/Time
(MST)
Sf
Temp Chem Water Layer Surface Precipitation
Sf Sub Frz Factor Pct Depth IcePct Cond Salin Type Intens Accum Rate
11/26/2014 19:16 Chemically Wet 32.0F 31F 32F 95 0% 0.00 in 0% 0 mhos 4 None None - -
11/26/2014 19:16 Chemically Wet 32.0F 31F 32F 95 0% 0.00 in 0% 0 mhos 4 None None - -
11/26/2014 19:06 Chemically Wet 32.0F 31F 32F 95 0% 0.00 in 0% 0 mhos 4 Yes - - -
11/26/2014 19:00 Ice Warning 31.8F 31F 32F 95 0% - 97% 0 mhos 4 Yes - - -
11/26/2014 18:56 Chemically Wet 32.0F 31F 32F 95 0% 0.00 in 0% 0 mhos 4 None None - -
11/26/2014 18:47 Ice Warning 31.8F 31F 32F 95 0% - 97% 0 mhos 4 Yes - - -
11/26/2014 18:46 Ice Warning 31.8F 31F 32F 95 0% - 97% 0 mhos 4 Yes - - -
11/26/2014 18:36 Chemically Wet 32.0F 31F 32F 95 0% 0.00 in 0% 0 mhos 4 None None - -
11/26/2014 18:30 Ice Warning 32.0F 31F 32F 95 0% - 89% 0 mhos 3 Yes - - -
11/26/2014 18:26 Ice Warning 32.0F 31F 32F 75 0% - 89% 0 mhos 3 None None - -
11/26/2014 18:17 Ice Warning 32.0F 31F 32F 90 0% - 89% 0 mhos 3 None None - -
11/26/2014 18:16 Ice Warning 32.0F 31F 32F 80 0% - 89% 0 mhos 3 Yes - - -
11/26/2014 18:06 Ice Warning 32.0F 31F 32F 60 0% - 89% 0 mhos 3 None None - -
11/26/2014 18:01 Ice Warning 32.0F 31F 32F 65 0% - 89% 0 mhos 3 None None - -
11/26/2014 17:56 Ice Warning 32.0F 31F 32F 85 0% - 89% 0 mhos 3 None None - -
Date/Time
(MST)
Sf
Temp Chem Water Layer Surface Precipitation
Sf Sub Frz Factor Pct Depth IcePct Cond Salin Type Intens Accum Rate
11/26/2014 17:47 Ice Warning 32.0F 31F 32F 55 0% - 89% 0 mhos 3 None None - -
11/26/2014 17:46 Ice Warning 32.0F 31F 32F 50 0% - 89% 0 mhos 3 None None - -
11/26/2014 17:36 Ice Warning 32.0F 31F 32F 65 0% - 88% 0 mhos 3 None None - -
11/26/2014 17:31 Ice Warning 32.0F 31F 32F 55 0% - 88% 0 mhos 3 None None - -
11/26/2014 17:26 Ice Warning 32.0F 31F 32F 50 0% - 88% 0 mhos 3 Yes - - -
11/26/2014 17:17 Ice Warning 31.8F 31F 32F 55 0% - 98% 0 mhos 3 None None - -
11/26/2014 17:16 Chemically Wet 32.0F 31F 32F 65 0% 0.30 in 0% 0 mhos 3 Yes - - -
Change End Date:
Copyright © 1998-2005 Surface Systems, Inc.
All Rights Reserved
Send comments about the data to:
SCAN Web ® is a registered trademark of Surface Systems, Inc.
SCAN Web Version 5.6